Location: Tucson
(32.2217°N, 110.9265°W)
Time: 16:30:01
(UTC-07:00)

BlueWalker 3 - Pass Details

Date: 09 December 2022
Orbit: 499 x 517 km, 53.2° (Epoch: 31 January)

Event Time Altitude Azimuth Distance (km) Brightness Sun altitude
Rises 18:06:29 0° 333° (NNW) 2,618 5.7 -10.0°
Reaches altitude 10° 18:09:40 10° 1° (N) 1,724 4.4 -10.7°
Maximum altitude 18:11:41 14° 32° (NNE) 1,505 3.9 -11.1°
Enters shadow 18:12:15 13° 42° (NE) 1,523 3.8 -11.2°
